Find Starlink 30497

NORAD ID: 58011 Int'l Des: 2023-153 Owner: SPXS Country: US Constellation: starlink operational
LEOCIRCULAR

現在のビュー

3D地球を読み込み中...

About Starlink 30497

Starlink 30497 (NORAD 58011) is a starlink constellation satellite (v2 mini) launched Oct 5, 2023 by SPXS of US. It operates in LEO, CIRCULAR orbit with a mass of 730.00 kg.

Starlink 30497について

説明を読み込み中...

次回通過

Passes for default location (London). Set your location on the main map for personalized predictions.

高度履歴

Loading altitude history...

軌道要素

1 58011U 23153W 26167.44623897 .00001569 00000-0 66560-4 0 9992
2 58011 43.0070 229.0003 0003005 290.3915 69.6614 15.27585003150008
Epoch: Jun 16, 2026 • Age: 40 hours

現在のステータス

高度 493.0 km
速度 7.62 km/s
衛星直下点 -40.00°S, 158.46°W
打ち上げ日 Oct 5, 2023
運用期間 2.6 years
タイプ internet

技術仕様

分類 Payload
質量 730.00 kg
乾燥質量 700.00 kg
総質量 730.00 kg
長さ 0.30 m
直径 4.10 m
スパン 29.00 m
形状 Box + pan
製造者 SPXS
バスタイプ Starlink V2M
フェーズステータス In Orbit
所有者/国 SPXS/US

Most Searched